Friday, January 19, 2018, 10:38 AM EST
Back to Local

KCAK, Akron-canton Regional Airport

Location: Canton, OH, United States Lat: 40.917
Local Time: 10:38 AM EST (15:38 GMT) Lon: -81.45
Time Zone: US/Eastern Elev: 1227 ft

Show me the last for .
Show Coded

Time T Td Feel RH Dir Speed Gust Alt SLP Vis Weather Sky Remarks
2018-01-19 09:51 23 11 7 59 220° 16 24 30.06 30.11 10 SCT250 None
2018-01-19 08:51 20 10 7 64 220° 14 - 30.06 30.11 10 SCT250 None
2018-01-19 07:51 19 9 6 64 200° 14 - 30.06 30.11 10 FEW250 None
2018-01-19 06:51 18 9 5 67 210° 13 - 30.07 30.13 10 FEW250 Snow depth: 3"
6-hr Min Temp (7am): 17.1°F
6-hr Max Temp (7am): 23.0°F
2018-01-19 05:51 20 9 7 61 220° 13 - 30.06 30.11 10 CLR None
2018-01-19 04:51 19 9 5 64 220° 15 - 30.05 30.10 10 CLR None
2018-01-19 03:51 20 9 6 61 220° 15 - 30.06 30.11 10 CLR None
2018-01-19 02:51 20 9 6 61 220° 16 - 30.06 30.11 10 CLR None
2018-01-19 01:51 21 10 8 61 220° 15 - 30.06 30.11 10 CLR None
2018-01-19 00:51 23 10 10 56 210° 16 - 30.05 30.10 10 CLR Snow depth: 3"
6-hr Min Temp (1am): 21.9°F
6-hr Max Temp (1am): 24.1°F
2018-01-18 23:51 23 11 10 59 220° 16 - 30.06 30.11 10 CLR 24-hr Min Temp (12am): 7.0°F
24-hr Max Temp (12am): 27.0°F
2018-01-18 22:51 24 11 11 56 220° 16 - 30.07 30.13 10 CLR None
2018-01-18 21:51 24 11 10 56 220° 18 - 30.08 30.14 10 CLR None
2018-01-18 20:51 23 11 9 59 220° 17 - 30.09 30.16 10 CLR None
2018-01-18 19:51 24 11 11 56 220° 17 - 30.10 30.17 10 CLR None
2018-01-18 18:51 24 11 10 56 230° 20 - 30.10 30.16 10 CLR Snow depth: 3"
6-hr Min Temp (7pm): 21.9°F
6-hr Max Temp (7pm): 27.0°F
2018-01-18 17:51 25 11 12 54 230° 16 - 30.09 30.15 10 CLR None
2018-01-18 16:51 25 12 13 57 220° 15 - 30.09 30.15 10 CLR None
2018-01-18 15:51 26 12 13 54 240° 17 - 30.10 30.16 10 CLR None
2018-01-18 14:51 25 12 12 57 220° 16 - 30.10 30.16 10 CLR None
2018-01-18 13:51 24 10 8 54 230° 15 24 30.10 30.17 10 CLR None
2018-01-18 12:51 22 9 8 56 240° 17 - 30.13 30.19 10 CLR Snow depth: 3"
Water equiv. of snow on ground: 0.4"
6-hr Min Temp (1pm): 9.0°F
6-hr Max Temp (1pm): 21.9°F
2018-01-18 11:51 19 8 1 61 230° 18 28 30.17 30.24 10 CLR None
2018-01-18 10:51 17 6 -1 61 230° 16 24 30.18 30.25 10 CLR None

Support USWX by starting your Amazon purchase here.